SCISAT 1

Satellite information

Favourite Embed

Satellite Type and Status

PAYLOADIN ORBIT

Key statistics

Satellite SCISAT 1 at a glance.

Uptime

8000

Days in orbit

Revolutions

≈ 14.8

Per day

Orbit

LEO

Low Earth Orbit

Inclination

73.9

Latest

Satellite identification and parameters

Extended collection of information and parameters for SCISAT 1.

Object identification

Identified? True

Debris? False

Object name: SCISAT 1

International designator: 2003-036A

Object number (NORAD): 27858

Object ID (CCSDS): 27858

Country: CANADA (CA)

Current information (Y/N): Y

RCS size: MEDIUM

Orbital parameters

Period: 97.248 minutes

Inclination: 73.9301 deg

SMA: 7005.092 km

Apoapsis: 633.219 km

Periapsis: 620.694 km

RAAN: 137.0952 deg

Eccentricy: 0.000894

Argument of periapsis: 277.7286 deg

Mean anomaly: 82.2875 deg

Mean motion: 14.80750964 rev/day

Mean motion (dot): 0.00000523 rev/day2

B* drag term: 0.000072609 1/REarth

Two-line elements (TLE)

Creation date: July 6, 2025, 10:36 p.m.

Reference frame: TEME

Reference center: EARTH

Epoch: July 6, 2025, 8:55 p.m. UTC

TLE line 0: 0 SCISAT 1

TLE line 1: 1 27858U 03036A 25187.87159869 .00000523 00000-0 72609-4 0 9996

TLE line 2: 2 27858 73.9301 137.0952 0008940 277.7286 82.2875 14.80750964180333

Live tracking on map

Real-time ground track for satellite SCISAT 1.

In-orbit conjunctions

There are no conjunctions computed for SCISAT 1, at the moment. Check back to stay up to date, as we update our databases every day.

Go to all conjunctions

Associated space launch

SCISAT 1 was lifted into orbit during the mission ‘Pegasus XL | SCISAT-1’, on board a Pegasus XL space rocket.

The launch took place on Aug. 13, 2003, 2:09 a.m. from Vandenberg Space Force Base.

For more information about the launch, click the button.

Launch to space Pegasus XL | SCISAT-1
Pegasus XL | SCISAT-1

Agency: N/A

Status: Launch Successful

Launch date: Aug. 13, 2003, 2:09 a.m. UTC

Rocket: Pegasus XL

Launch pad: Vandenberg Space Force Base

Location: Air launch to orbit

...

Latest news about this satellite

There are no fresh news available about this satellite. Check back as we update our databases every day.


Newsletter sign-up

Weekly statistics, charts and insights to help you stay on top of the space industry.